Vertical_Velocity
-4 -1 -1 -2 -1 -0 -3 -1 -1 -0 1 -1 -1 -1 0 -0 1 -0 -1 0 -0 0 1 -0 -1 -1 -1 -1 -1 -1 -1 -0 -1 0 -0 -1 -0 -1 -1 -2 -2 -2 -1
-2 1 -1 1 -2 0 -3 -2 -1 -1 -1 0 -1 -1 -1 -1 0 0 -0 -0 0 -0 1 1 -0 -1 0 -0 -1 -1 -1 -0 0 -1 -1 -1 -2 -3 -3 -2 -1 -1 -1
-2 -4 -1 1 0 -1 1 -0 -1 -0 -1 -0 -1 -1 -0 -1 0 0 0 -1 -1 -0 -0 -0 -1 -0 -0 1 0 0 -1 -1 -0 0 -0 -1 -0 0 3 2 -1 -1 -1
3 -1 -3 0 -1 -0 1 -0 -1 1 -1 -0 -1 -1 -1 -0 -0 -0 -0 0 0 -1 -0 -0 -1 1 -1 -1 1 0 1 0 -1 -0 0 2 7 11 6 1 5 4 1
4 -0 -1 -1 1 -0 1 0 -1 1 -1 -1 1 -0 -2 -1 -1 -0 -0 0 -0 -0 -0 0 -0 1 -1 -1 -1 -0 1 1 0 -0 -1 1 1 -2 2 1 1 3 1
1 6 1 -1 -0 -1 -1 0 0 0 -0 -1 0 -1 -1 -2 -1 -1 -0 -0 0 -1 -2 -0 -0 1 -0 0 -1 -1 -0 1 0 -1 0 -1 -1 -2 -2 -1 0 -0 -1
4 1 3 2 -1 1 -1 -1 1 0 -1 -1 -0 -0 0 -1 -1 -1 -0 0 -0 0 -1 -1 -1 0 1 -0 0 0 -0 -1 0 0 0 0 -0 -1 -2 -2 -3 -2 -1
3 3 1 3 -0 1 1 -1 1 1 -0 -1 1 -0 1 0 -1 -0 -0 -1 -0 0 -0 0 -1 -1 0 0 0 0 1 0 -0 -1 -0 -0 -1 -3 -1 -2 2 -1 -1
2 0 3 2 -1 1 -1 0 -1 2 0 -1 -0 -0 -0 1 -1 -0 0 -0 -0 0 -0 -0 -1 -1 0 1 0 -0 -0 -1 -1 -1 -1 -1 -1 -1 -2 -2 3 -3 -3
4 2 0 4 0 -1 0 -1 -2 2 2 -0 0 1 0 1 0 0 1 -0 -0 1 0 0 0 0 0 -0 0 0 0 -0 -0 -1 -1 -1 -3 -2 2 -1 -2 3 1
5 -0 0 -2 0 -0 1 2 -1 -1 3 -1 -0 0 2 0 -0 -0 -0 0 -0 -0 0 0 -1 0 0 -0 0 0 -0 -1 -1 -1 -1 -1 -1 -1 -2 -2 -4 -1 1
2 0 2 0 -1 2 1 1 -1 -3 1 1 -0 1 -2 2 -0 -1 -1 2 0 0 0 0 0 -0 0 0 0 -1 -1 -0 -1 -1 -1 -0 -1 -1 -1 -3 -2 -1 -0
0 3 3 1 2 -0 2 -1 1 -2 2 0 0 -1 0 -2 2 -0 2 1 1 0 0 0 0 -1 -1 -0 -0 -1 -0 -0 -1 -1 -1 -0 -2 -1 -1 -1 -1 -1 0
-1 2 -1 4 1 2 1 -0 3 -0 0 1 1 -1 1 -1 0 -2 -0 0 1 1 -0 -0 1 1 -0 -1 -0 -0 -0 -1 -1 -1 -2 -0 -1 -2 -1 0 -0 -0 -1
2 1 0 -2 -0 3 -0 1 1 0 1 1 1 0 0 -0 -1 -2 -3 -2 2 2 1 1 0 1 1 0 0 1 0 1 -0 0 -1 -1 -1 0 -2 -1 -0 -0 -0
2 1 -1 -2 -0 1 1 -2 0 2 2 2 2 3 -1 2 2 0 -2 -2 -4 2 1 1 -0 0 0 1 0 -0 -0 0 1 0 -0 -0 -0 -0 0 -0 -1 -0 -0
4 0 -1 0 2 1 2 1 -3 -1 1 3 2 2 5 1 2 5 -1 0 -4 -3 2 0 1 0 0 0 1 1 1 -0 1 0 0 -0 -1 0 1 -0 0 0 -0
55 3 6 -4 0 -1 -2 0 1 -1 -0 2 2 2 3 1 1 2 4 -0 -1 -3 -0 2 1 1 1 0 1 0 1 0 -1 1 1 1 -0 -1 0 0 -0 -1 -1
-8 18 13 1 1 2 3 3 1 2 1 1 1 0 2 1 -2 2 2 1 0 -4 -0 1 1 0 0 0 1 0 1 2 1 -1 -1 1 1 0 -1 -2 -2 -1 -1
6 5 44 29 -1 3 9 6 6 0 3 1 0 2 -1 3 -4 0 2 2 2 -1 -3 2 1 0 -0 -0 -0 -1 -1 0 1 0 -0 -1 0 1 1 -0 -1 -1 -1
-6 2 -7 -26 25 -3 -0 1 -0 -5 -2 2 1 5 -1 3 -1 -2 -1 7 -1 2 -5 -4 4 1 0 1 1 1 1 2 0 -1 1 1 -1 -1 -1 -2 -2 -2 -1
2 -17 6 -29 11 12 3 -2 -4 -5 -4 -0 2 -2 5 1 3 -0 0 -4 0 4 1 -4 1 -1 1 1 -0 1 -1 1 3 -1 -0 2 1 1 -1 -2 -2 -2 -2
-3 -4 8 -12 14 16 -1 1 1 4 9 -2 3 -4 -1 1 2 -2 2 -3 2 0 3 -1 1 0 0 0 3 1 -1 -0 1 1 1 -0 2 1 -0 0 1 -3 -3
-2 6 10 4 7 24 6 7 13 -14 -6 -3 1 2 4 5 -0 1 3 -1 -4 3 -6 3 -1 -0 -3 0 1 2 -0 1 1 -1 2 -1 0 2 1 -1 -1 1 -2
-3 1 13 4 -6 -10 3 -7 21 19 11 5 9 4 3 3 -2 5 1 -1 -4 2 -6 2 3 -0 3 -3 -3 -2 -0 -0 -0 -1 -0 1 0 1 2 -1 0 -1 1
9 -5 4 5 8 8 12 16 -20 17 10 -7 -3 2 5 4 3 6 2 7 3 -6 1 1 -4 4 -1 5 1 1 1 0 -1 -4 -1 -1 -4 -3 -1 4 -0 1 -2
Height
1487 1491 1496 1501 1504 1506 1508 1511 1513 1514 1516 1517 1518 1520 1522 1523 1525 1526 1527 1528 1529 1529 1529 1529 1529 1529 1530 1529 1530 1531 1532 1533 1534 1535 1536 1537 1538 1538 1539 1540 1540 1541 1542
1484 1490 1495 1499 1502 1505 1507 1510 1512 1513 1515 1516 1518 1520 1521 1523 1524 1526 1526 1527 1528 1528 1528 1528 1529 1529 1529 1529 1530 1531 1532 1533 1535 1536 1537 1538 1538 1539 1540 1540 1541 1541 1541
1482 1488 1494 1498 1501 1504 1506 1509 1511 1513 1515 1516 1518 1519 1521 1522 1524 1525 1526 1526 1527 1527 1528 1528 1528 1528 1528 1529 1530 1531 1532 1533 1535 1536 1538 1538 1539 1540 1540 1540 1541 1541 1542
1482 1486 1492 1497 1501 1503 1506 1508 1510 1512 1514 1516 1517 1519 1520 1522 1523 1524 1525 1526 1526 1527 1528 1528 1528 1529 1529 1529 1530 1532 1533 1534 1536 1537 1539 1540 1540 1541 1541 1541 1542 1542 1542
1482 1486 1490 1496 1499 1503 1505 1507 1509 1511 1513 1515 1516 1518 1520 1521 1522 1523 1524 1525 1526 1527 1527 1527 1528 1528 1528 1530 1531 1532 1534 1535 1537 1538 1540 1540 1541 1542 1542 1542 1542 1542 1542
1483 1486 1490 1494 1498 1502 1505 1507 1508 1511 1513 1514 1516 1518 1519 1520 1522 1523 1525 1525 1526 1527 1527 1527 1528 1529 1529 1530 1532 1533 1534 1536 1537 1539 1540 1541 1542 1542 1542 1542 1541 1541 1541
1482 1487 1491 1494 1497 1500 1504 1506 1508 1510 1512 1514 1516 1517 1519 1520 1522 1523 1525 1526 1526 1527 1528 1528 1529 1530 1530 1531 1532 1534 1535 1537 1538 1539 1540 1541 1542 1542 1542 1541 1540 1541 1541
1485 1487 1491 1494 1496 1499 1503 1505 1507 1509 1511 1513 1516 1517 1519 1520 1522 1524 1525 1526 1527 1528 1528 1529 1529 1530 1531 1532 1534 1535 1536 1537 1538 1539 1540 1541 1542 1542 1542 1541 1540 1541 1541
1485 1488 1490 1493 1495 1499 1501 1504 1507 1509 1511 1513 1515 1517 1519 1521 1522 1524 1526 1527 1528 1529 1530 1530 1531 1531 1532 1534 1535 1536 1536 1537 1538 1539 1540 1542 1543 1543 1542 1542 1543 1542 1541
1484 1486 1489 1492 1494 1497 1500 1503 1506 1509 1511 1513 1515 1517 1519 1521 1523 1524 1526 1528 1529 1530 1531 1531 1532 1533 1534 1535 1536 1536 1537 1538 1539 1540 1541 1542 1543 1543 1544 1544 1544 1543 1543
1481 1484 1487 1490 1493 1496 1499 1501 1504 1508 1510 1512 1515 1517 1519 1521 1523 1525 1526 1528 1529 1531 1532 1532 1533 1534 1535 1536 1537 1537 1538 1539 1540 1541 1541 1542 1543 1544 1544 1544 1544 1544 1543
1477 1481 1484 1487 1491 1494 1497 1500 1502 1506 1509 1512 1515 1517 1519 1522 1523 1525 1527 1529 1530 1532 1533 1534 1534 1535 1536 1537 1538 1538 1539 1540 1541 1541 1542 1543 1544 1544 1544 1544 1543 1543 1543
1475 1479 1481 1485 1489 1492 1495 1498 1501 1505 1509 1511 1514 1517 1519 1522 1524 1526 1527 1529 1530 1532 1533 1534 1535 1536 1537 1538 1539 1539 1540 1541 1541 1542 1542 1543 1544 1545 1544 1544 1544 1544 1544
1472 1476 1480 1483 1486 1490 1494 1497 1500 1504 1508 1511 1513 1516 1519 1522 1524 1526 1528 1529 1531 1532 1533 1535 1536 1536 1538 1539 1539 1540 1541 1541 1542 1542 1543 1544 1544 1545 1545 1545 1545 1544 1544
1468 1472 1476 1481 1484 1488 1491 1495 1499 1503 1506 1510 1513 1516 1519 1521 1524 1526 1528 1530 1532 1533 1534 1535 1536 1537 1538 1539 1540 1541 1542 1542 1542 1543 1543 1544 1545 1545 1545 1545 1545 1545 1544
1464 1468 1472 1476 1481 1485 1488 1493 1497 1502 1505 1508 1512 1516 1518 1521 1524 1525 1528 1529 1532 1533 1534 1535 1536 1537 1538 1539 1540 1541 1542 1543 1543 1544 1544 1544 1545 1545 1545 1545 1545 1545 1544
1460 1462 1467 1471 1476 1480 1485 1489 1494 1500 1504 1507 1511 1514 1517 1521 1523 1525 1527 1528 1530 1533 1534 1535 1536 1537 1538 1539 1540 1541 1542 1543 1544 1544 1545 1545 1545 1545 1545 1545 1545 1544 1544
1439 1450 1459 1466 1469 1475 1479 1485 1490 1495 1501 1506 1509 1513 1516 1519 1522 1525 1526 1528 1529 1532 1534 1535 1536 1537 1538 1539 1540 1541 1542 1543 1544 1545 1545 1545 1545 1545 1546 1545 1545 1544 1543
1447 1439 1449 1457 1463 1469 1475 1479 1486 1493 1498 1504 1508 1512 1515 1518 1521 1524 1526 1527 1529 1531 1533 1535 1536 1537 1538 1539 1540 1541 1543 1544 1544 1545 1546 1546 1545 1545 1545 1544 1544 1543 1542
1445 1444 1437 1441 1453 1466 1472 1475 1481 1489 1496 1501 1506 1510 1513 1516 1519 1523 1525 1527 1528 1529 1532 1534 1535 1537 1538 1539 1540 1541 1543 1544 1545 1545 1545 1545 1545 1545 1544 1543 1543 1542 1540
1444 1445 1448 1442 1442 1458 1466 1467 1475 1483 1492 1498 1502 1508 1511 1515 1517 1522 1525 1526 1528 1529 1530 1534 1535 1536 1538 1539 1540 1542 1543 1544 1544 1545 1545 1545 1544 1544 1543 1542 1541 1539 1538
1437 1441 1444 1445 1440 1448 1459 1464 1471 1480 1487 1495 1500 1506 1509 1513 1516 1520 1523 1525 1527 1529 1529 1532 1535 1536 1537 1539 1540 1541 1543 1545 1543 1543 1545 1544 1544 1543 1541 1540 1539 1537 1535
1427 1432 1435 1444 1443 1443 1451 1461 1468 1476 1484 1491 1497 1502 1508 1511 1514 1518 1521 1522 1526 1528 1528 1531 1533 1535 1537 1538 1539 1540 1540 1541 1541 1542 1542 1544 1543 1541 1540 1538 1536 1534 1533
1422 1427 1435 1438 1440 1442 1449 1457 1459 1464 1474 1485 1493 1500 1506 1509 1512 1516 1519 1520 1524 1526 1527 1530 1530 1533 1535 1538 1539 1539 1539 1540 1540 1541 1541 1541 1542 1541 1538 1537 1535 1532 1529
1418 1421 1429 1434 1437 1438 1444 1454 1465 1470 1473 1486 1494 1501 1505 1509 1510 1515 1518 1519 1522 1524 1525 1528 1529 1531 1532 1534 1536 1538 1538 1538 1538 1539 1539 1539 1540 1539 1537 1535 1532 1530 1527
1416 1418 1424 1430 1437 1443 1447 1448 1456 1473 1481 1487 1496 1501 1506 1509 1512 1514 1516 1519 1519 1522 1526 1526 1528 1531 1531 1533 1534 1535 1536 1536 1535 1537 1538 1536 1534 1534 1534 1532 1529 1526 1522